This is the latest recevied weather packets stored in our database for station/object WY7ATH-2. If no packets are shown the sender has not sent any weather packets the latest 10 day(s).
| Time | Temp. | Humidity | Pressure | Rain* | Wind** | Luminosity | Snow |
|---|---|---|---|---|---|---|---|
| 1777336335 | -1.11° C | - | - | 0.25 mm | 0 m/s | - | - |
| 1777335739 | -1.11° C | - | - | 0.25 mm | 0 m/s | - | - |
| 1777335142 | -0.56° C | - | - | 0.25 mm | 0 m/s | - | - |
| 1777332751 | -0.56° C | - | - | 0.25 mm | 0 m/s | - | - |
| 1777330960 | 0° C | - | - | 0.25 mm | 0 m/s | - | - |
| 1777329762 | -0.56° C | - | - | 6.86 mm | 0 m/s | - | - |
| 1777329166 | -0.56° C | - | - | 6.86 mm | 0 m/s | - | - |
| 1777327972 | 0.56° C | - | - | 6.86 mm | 0 m/s | - | - |
| 1777324387 | 3.89° C | - | - | 9.4 mm | 0 m/s | - | - |
| 1777321399 | 7.78° C | - | - | 18.29 mm | 0 m/s | - | - |
| 1777320205 | 8.89° C | - | - | 18.29 mm | 0 m/s | - | - |
| 1777319608 | 10° C | - | - | 20.07 mm | 0 m/s | - | - |
| 1777319007 | 10.56° C | - | - | 20.07 mm | 0 m/s | - | - |
| 1777318410 | 11.67° C | - | - | 20.07 mm | 0 m/s | - | - |
| 1777316023 | 10° C | - | - | 18.8 mm | 0 m/s | - | - |
| 1777314825 | 10.56° C | - | - | 18.8 mm | 0 m/s | - | - |
| 1777311240 | 6.67° C | - | - | 17.78 mm | 0 m/s | - | - |
| 1777309449 | 5° C | - | - | 17.78 mm | 0 m/s | - | - |
| 1777308252 | 6.11° C | - | - | 13.46 mm | 0 m/s | - | - |
| 1777304070 | 1.67° C | - | - | 12.45 mm | 0 m/s | - | - |
| 1777301682 | 3.33° C | - | - | 8.89 mm | 0 m/s | - | - |
| 1777298098 | -0.56° C | - | - | 0.25 mm | 0 m/s | - | - |
| 1777297497 | -1.67° C | - | - | 0.25 mm | 0 m/s | - | - |
| 1777296900 | -1.67° C | - | - | 0.25 mm | 0 m/s | - | - |
| 1777295706 | -3.33° C | - | - | 0.25 mm | 0 m/s | - | - |
* Rain latest hour (hover to see other rain measurements)
** Current wind speed in m/s (hover to see current wind gust speed)